Hobart Regional Airport Hobart US
ICAO: KHBR
IATA: HBR
Category: Medium
Scheduled Services: No

Elevation: 1563 ft
TransAlt. 18000 ft.

Airport Communications:
ALTUS APP:125.1
ASOS:133.325
ALTUS DEP:125.1
MC ALESTER RDO:122.2
CTAF/UNICOM:122.8

KHBR Zoom In..

If you have problems with the map follow the link
https://www.worldairports.se/pages/airport.php?
ICAO=KHBR

Runways:

(A) RW 03 length 5297 ft width 150 ft
---- / hdg 38

(B) RW 12 length 5295 ft width 150 ft
---- / hdg 128

(C) RW 17 length 5507 ft width 100 ft
---- / hdg 173

(D) RW 21 length 5297 ft width 150 ft
---- / hdg 218

(E) RW 30 length 5295 ft width 150 ft
---- / hdg 308

(F) RW 35 length 5507 ft width 100 ft
---- / hdg 353

Location; KHBR
Day. 14 / Time. 10.53 Zulu
* Altimeter: 30.47
* Temperature: -06° c. -21.2°f.
* Wind from: 290° Speed 05 kn.
Dewpoint: -08° c.
Visibility: 10 Statute Miles.
Clouds: Clear (automated report).

KHBR 141053Z AUTO 29005KT 10SM CLR M06/M08 A3047 RMK AO2 SLP332 T10611078


Wind From 290°
Speed 05 kn.

 
 
jpsmedia.com for Web Design worldairports.se 2018   terms of use